Lid_Strength_Index
-1 -1 -1 -1 -1 -1 -1 -1 -1 -1 -2 -2 -1 -1 -1 -1 -0 2 4 2 1 -0 2 3 3 4 4 5 6 7 13 14 13 12 11 12 12 11 8 7 7 6 6 4 3
-2 -1 -1 -1 -1 -1 -1 -1 -1 -1 -1 -1 -1 -1 -1 -1 2 3 1 -1 -1 -1 3 3 5 4 7 8 7 9 13 13 10 10 11 11 12 11 10 8 8 7 5 3 3
-2 -2 -2 -2 -2 -1 -1 -2 -2 -1 -1 -1 -1 -1 -1 0 4 4 -2 -2 -2 -0 2 3 4 5 8 8 8 10 12 11 11 9 10 11 12 11 10 11 7 7 6 4 4
-1 -1 -2 -2 -2 -2 -2 -1 -2 -2 -1 -1 -1 -1 -1 2 11 3 -2 -2 -2 2 3 5 5 7 9 9 8 10 9 9 9 9 9 12 11 11 11 8 7 5 4 4 4
-1 -1 -1 -1 -2 -2 -2 -1 -1 -1 -2 -2 -2 -1 1 5 6 2 -0 -1 -0 3 4 4 6 7 10 9 9 10 9 8 8 8 8 11 13 12 12 10 9 4 4 5 4
-1 -1 -1 -1 -1 -2 -2 -2 -2 -1 -1 -1 -2 -1 3 9 1 1 0 0 2 3 4 4 5 5 8 9 9 9 9 9 8 8 8 9 11 14 12 11 6 5 5 5 4
-1 -1 -1 -1 -1 -1 -2 -1 -1 -1 -1 -1 -1 0 4 6 1 2 0 1 2 3 4 4 4 5 7 9 7 8 10 9 8 8 9 11 14 15 12 13 7 6 6 5 4
-1 -1 -1 -1 -1 -1 -1 -1 -1 -1 -1 -1 -1 1 6 1 2 1 1 3 3 2 3 3 3 5 6 7 9 11 10 14 9 8 8 12 15 12 11 13 12 7 6 5 5
-1 -1 -1 -1 -1 -1 -1 -1 -1 -1 -1 -1 1 3 7 0 3 2 2 3 3 2 2 2 3 6 7 11 12 12 16 15 12 8 9 12 15 12 10 13 13 13 6 6 5
-0 -1 -1 -1 -1 -1 -1 -1 -1 -1 -0 -0 1 6 4 6 3 2 2 2 4 4 5 6 7 10 10 12 17 15 15 13 13 10 10 12 14 12 12 12 13 13 13 7 6
-1 -1 -1 -1 -1 -1 -0 2 5 5 4 6 6 6 5 3 1 3 2 3 4 6 10 8 11 14 12 11 10 11 13 14 12 9 11 12 11 10 11 13 13 13 13 13 9
-1 -1 -1 -1 -1 -1 1 5 5 5 8 4 4 4 4 3 7 5 2 7 8 11 9 11 13 10 9 10 11 11 13 14 11 10 11 12 12 10 10 10 11 11 11 13 12
0 -0 -1 -1 -1 0 3 4 2 3 8 7 5 6 5 4 7 7 4 6 9 11 11 12 11 8 10 11 12 12 13 14 13 11 11 12 14 12 10 12 11 11 10 9 11
-1 0 -1 -1 2 2 4 2 1 4 16 13 8 6 5 5 8 4 3 6 9 11 10 11 8 10 11 12 11 15 10 11 13 14 17 12 19 13 11 11 10 11 10 10 9
-1 -1 1 -1 2 4 3 1 3 7 26 12 9 3 5 8 7 7 3 6 10 10 10 12 11 12 13 12 10 13 10 11 12 14 15 16 17 15 12 13 11 11 10 9 8
-1 -1 -1 1 2 3 1 3 6 18 26 13 8 9 9 8 8 7 7 5 6 10 10 10 8 9 10 9 9 9 11 12 12 14 19 15 16 16 15 15 13 11 10 10 9
-1 -1 0 1 5 1 2 6 18 24 15 13 12 10 10 11 10 9 10 11 13 15 15 12 12 9 8 12 10 11 14 19 20 20 20 15 16 14 13 13 13 13 11 12 11
-1 -0 1 2 1 2 4 12 23 21 18 10 10 10 12 11 11 10 11 13 10 11 14 16 17 12 9 11 13 13 13 18 23 22 20 17 19 15 12 11 10 11 10 12 13
-1 3 4 3 2 2 8 16 19 18 14 11 11 13 13 11 11 11 12 12 11 10 15 16 16 10 9 9 10 13 16 11 16 21 21 18 18 16 13 13 13 14 13 12 12
2 5 7 3 2 4 11 15 16 14 10 10 14 12 15 13 13 13 13 10 11 9 8 12 16 11 10 9 9 11 10 16 16 21 23 20 20 17 16 13 10 14 14 14 13
3 8 6 2 2 8 14 15 14 12 10 12 14 13 13 13 13 13 13 10 9 10 9 11 13 14 11 13 14 13 14 13 13 15 19 22 19 16 13 13 14 13 13 13 14
7 11 5 3 10 11 13 14 10 12 11 11 12 12 12 12 13 13 13 11 8 8 12 10 13 16 15 10 9 10 12 13 17 18 18 19 18 15 14 15 15 15 14 14 14
8 7 4 3 13 13 11 13 11 12 12 11 12 11 11 12 14 12 11 8 8 9 11 10 14 18 17 13 11 13 12 11 12 14 16 18 17 14 16 16 15 15 14 15 16
7 11 8 6 10 11 13 14 14 11 12 11 11 11 12 12 11 13 12 9 8 8 8 8 13 15 17 16 13 15 13 12 13 17 16 15 15 14 14 15 15 14 15 15 15
8 10 10 12 11 11 12 13 14 14 12 11 12 12 12 14 14 13 12 11 10 8 9 10 15 14 13 13 13 13 13 13 14 14 16 14 13 12 11 12 14 14 14 14 14
9 9 9 10 10 11 11 14 13 13 13 13 13 12 12 13 13 13 11 12 12 9 10 10 14 13 15 13 13 16 12 12 12 13 13 12 13 11 12 12 16 14 14 14 14
6 6 9 10 11 12 14 14 14 12 12 12 12 12 13 12 10 10 9 9 10 10 12 12 13 15 17 14 14 17 14 12 12 11 12 14 11 11 12 14 13 13 14 13 13